GSAT0209 (GALILEO 12)

Last updated on Fri Jul 04 2025 00:02:32 GMT+0000 (Coordinated Universal Time)

1 41174U 15079A 25183.43469631 -.00000015 00000+0 00000+0 0 9999 2 41174 55.6168 110.8661 0004881 335.1615 24.8007 1.70473887 58816
UTC large
Height (km)
Speed (km/s)
/
Latitude / Longitude
Inclination (degrees)
Orbital Period (minutes)
Azimuth
Elevation
Range (km)
Doppler Factor

Next 0 passes for location: London (51.5072 / 0.1276)

Sorry there are no passes over London.